Regional Weather Roundup
Issued by NWS

Home | Current Version | Previous Version | Graphics & Text | Print | Product List | Glossary On
Versions: 1 2 3 4 5 6 7 8 9 10 11 12 13 14 15 16 17 18 19 20 21 22 23 24 25 26 27 28 29 30 31 32 33 34 35 36 37 38 39 40 41 42 43 44 45 46 47 48 49 50
617
ASUS43 KLOT 221801
RWRIL

ILLINOIS REGIONAL WEATHER ROUNDUP
NATIONAL WEATHER SERVICE CHICAGO/ROMEOVILLE IL
100 PM CDT FRI MAY 22 2015

NOTE: "FAIR" INDICATES FEW OR NO CLOUDS BELOW 12,000 FEET WITH NO
SIGNIFICANT WEATHER AND/OR OBSTRUCTIONS TO VISIBILITY.

* THESE STATIONS ARE NOT UNDER NWS QUALITY CONTROL. THEY ALSO MAY NOT
  REPORT WEATHER SUCH AS PRECIPITATION OR FOG.

ILZ001-002-007-009-015-016-024-221900-
NORTHWEST ILLINOIS

CITY           SKY/WX    TMP DP  RH WIND       PRES   REMARKS
MOLINE         SUNNY     75  39  27 VRB5      30.20S
6HR MIN TEMP:  50; 6HR MAX TEMP:  75;

STERLING*      SUNNY     75  41  29 NW6       30.22R
$$

ILZ003-004-008-010-011-017-018-221900-
NORTH CENTRAL ILLINOIS

CITY           SKY/WX    TMP DP  RH WIND       PRES   REMARKS
ROCKFORD       MOSUNNY   71  38  29 VRB3      30.24S
6HR MIN TEMP:  51; 6HR MAX TEMP:  71;

FREEPORT*      SUNNY     69  40  35 CALM      30.23F
$$

ILZ005-006-012>014-019>023-221900-
NORTHEAST ILLINOIS

CITY           SKY/WX    TMP DP  RH WIND       PRES   REMARKS
CHICAGO-OHARE  SUNNY     64  31  28 E9        30.24R
6HR MIN TEMP:  51; 6HR MAX TEMP:  64;

CHICAGO-MIDWAY MOSUNNY   67  32  27 NE9       30.24S
6HR MIN TEMP:  54; 6HR MAX TEMP:  67;

AURORA         SUNNY     71  35  26 VRB6      30.22S
6HR MIN TEMP:  50; 6HR MAX TEMP:  72;

WAUKEGAN       SUNNY     56  29  35 NE8       30.26R
6HR MIN TEMP:  48; 6HR MAX TEMP:  57;

DUPAGE AIRPORT SUNNY     68  36  30 NE7       30.22S
6HR MIN TEMP:  50; 6HR MAX TEMP:  69;

WHEELING       SUNNY     60  27  28 NE12      30.27R
6HR MIN TEMP:  50; 6HR MAX TEMP:  61;

NORTHERLY ISL    N/A     53  37  54 N12         N/A
$$

LMZ740>746-221900-
SOUTHERN LAKE MICHIGAN

STATION/POSITION SKY/WX   TEMP    WIND        PRES    VSBY  WAVE
                          AIR SEA DIR/SP/G                  HT/PER
                          (F)     (DEG/KT/KT) (MB)    (MI)  (FT/S)
SOUTHERN BUOY              41 38  340/  6/  6 1026.0R         1
HARRISON CRIB              47     360/ 11/ 13   N/A
BURNHAM HARBOR             53     360/  9/ 12   N/A
CALUMET HARBOR             52     350/  8/ 11   N/A
BURNS HARBOR               49      30/  7/  8 1024.7R
MICHIGAN CITY              50     350/ 13/ 15   N/A
MICHIGAN CITY 6N           48 51   20/ 12/ 16   N/A           2/ 2
ST. JOSEPH                 52 53   10/ 12/ 12   N/A           1/ 3
$$

ILZ025>027-034>036-040-047-049-050-058-095>099-221900-
WEST-CENTRAL ILLINOIS

CITY           SKY/WX    TMP DP  RH WIND       PRES   REMARKS
QUINCY         CLOUDY    73  43  33 W6        30.23S
$$

ILZ028>032-037-038-041>044-048-051>054-059>061-221900-
CENTRAL ILLINOIS

CITY           SKY/WX    TMP DP  RH WIND       PRES   REMARKS
DECATUR        SUNNY     75  42  30 W5        30.22S
PEORIA         SUNNY     77  40  26 N3        30.21S
6HR MIN TEMP:  55; 6HR MAX TEMP:  77;

SPRINGFIELD    SUNNY     77  42  28 W5        30.22F
6HR MIN TEMP:  54; 6HR MAX TEMP:  77;

TAYLORVILLE    NOT AVBL
$$

ILZ033-039-045-046-055>057-062-063-221900-
EAST-CENTRAL ILLINOIS

CITY           SKY/WX    TMP DP  RH WIND       PRES   REMARKS
CHAMPAIGN      SUNNY     76  41  28 N8        30.21S
MATTOON        SUNNY     75  41  29 VRB5      30.22R
$$

ILZ079-100>102-221900-
SOUTHWEST ILLINOIS

CITY           SKY/WX    TMP DP  RH WIND       PRES   REMARKS
ALTON          PTSUNNY   72  50  46 W6        30.25S
BELLEVILLE     PTSUNNY   73  50  44 SW3       30.23F
CAHOKIA*       PTSUNNY   74  48  39 NW5       30.24S
SPARTA*        MOSUNNY   71  52  51 CALM      30.27R
$$

ILZ064>066-069>071-074>076-080>082-084>086-088>090-092>094-221900-
SOUTH-CENTRAL ILLINOIS

CITY           SKY/WX    TMP DP  RH WIND       PRES   REMARKS
CARBONDALE     MOSUNNY   71  50  47 S7        30.26F
6HR MIN TEMP:  48; 6HR MAX TEMP:  72;

MARION         MOSUNNY   72  52  49 S7        30.27F
MT. VERNON     SUNNY     73  52  46 SW12      30.26F
$$

ILZ067-068-072-073-078-083-087-091-221900-
SOUTHEAST ILLINOIS

CITY           SKY/WX    TMP DP  RH WIND       PRES   REMARKS
LAWRENCEVILLE  SUNNY     73  52  47 W14       30.25R
ROBINSON*      SUNNY     71  48  43 SW10      30.25S
$$

ABBREVIATIONS USED IN REMARKS
   TC - TEMPERATURE IN CELSIUS
  WCI - WIND CHILL INDEX
   HX - HEAT INDEX
  VSB - VISIBILITY
$$




USA.gov is the U.S. government's official web portal to all federal, state and local government web resources and services.